TimePST,TemperatureF,Dew PointF,Humidity,Sea Level PressureIn,VisibilityMPH,Wind Direction,Wind SpeedMPH,Gust SpeedMPH,PrecipitationIn,Events,Conditions,WindDirDegrees,DateUTC
12:48 AM,48.2,48.2,100,29.65,10.0,NNW,4.6,-,N/A,Rain,Light Rain,330,2012-12-14 08:48:00
12:53 AM,48.2,48.2,100,29.65,10.0,North,4.6,-,N/A,Rain,Light Rain,360,2012-12-14 08:53:00
12:58 AM,47.7,47.7,100,29.63,10.0,North,2.3,-,0.01,Rain,Light Rain,360,2012-12-14 08:58:00
1:03 AM,48.2,48.2,100,29.65,10.0,NE,1.2,-,N/A,Rain,Light Rain,40,2012-12-14 09:03:00
1:08 AM,48.2,48.2,100,29.65,10.0,NE,6.9,-,N/A,Rain,Light Rain,40,2012-12-14 09:08:00
1:13 AM,48.2,46.4,93,29.65,10.0,NE,6.9,-,N/A,Rain,Light Rain,50,2012-12-14 09:13:00
1:23 AM,48.2,48.2,100,29.65,10.0,NE,10.4,-,N/A,,Light Drizzle,40,2012-12-14 09:23:00
1:58 AM,47.3,47.3,100,29.61,10.0,NE,8.1,-,0.01,Rain,Light Rain,50,2012-12-14 09:58:00
2:08 AM,48.2,48.2,100,29.63,10.0,ENE,6.9,-,N/A,Rain,Light Rain,60,2012-12-14 10:08:00
2:48 AM,46.4,46.4,100,29.61,10.0,ENE,9.2,-,N/A,Rain,Light Rain,70,2012-12-14 10:48:00
2:53 AM,46.4,46.4,100,29.61,10.0,ENE,9.2,-,N/A,Rain,Light Rain,70,2012-12-14 10:53:00
2:58 AM,46.9,46.8,99,29.60,10.0,ENE,8.1,-,0.01,Rain,Light Rain,70,2012-12-14 10:58:00
3:58 AM,46.8,46.8,100,29.58,10.0,East,5.8,-,0.00,,Light Drizzle,100,2012-12-14 11:58:00
4:33 AM,46.4,46.4,100,29.60,10.0,SSW,3.5,-,N/A,Rain,Light Rain,210,2012-12-14 12:33:00
4:43 AM,46.4,46.4,100,29.60,10.0,SSW,4.6,-,N/A,Rain,Light Rain,210,2012-12-14 12:43:00
4:58 AM,46.6,46.6,100,29.60,10.0,South,5.8,-,0.00,Rain,Light Rain,190,2012-12-14 12:58:00
5:58 AM,46.9,46.8,99,29.60,10.0,South,4.6,-,0.00,Rain,Light Rain,180,2012-12-14 13:58:00
6:58 AM,46.4,46.4,100,29.62,10.0,South,8.1,-,0.00,Rain,Light Rain,190,2012-12-14 14:58:00
7:32 AM,46.4,46.4,100,29.64,10.0,South,10.4,-,N/A,,Overcast,190,2012-12-14 15:32:00
7:58 AM,46.9,46.9,100,29.65,10.0,South,9.2,-,0.00,,Mostly Cloudy,180,2012-12-14 15:58:00
8:58 AM,48.4,44.4,86,29.67,10.0,South,12.7,-,N/A,,Overcast,180,2012-12-14 16:58:00
9:58 AM,50.7,43.9,77,29.68,10.0,SSW,12.7,-,0.01,,Overcast,210,2012-12-14 17:58:00
10:58 AM,52.5,42.4,69,29.70,10.0,South,11.5,-,N/A,,Mostly Cloudy,170,2012-12-14 18:58:00
11:58 AM,52.2,41.9,68,29.69,10.0,South,17.3,-,N/A,,Overcast,170,2012-12-14 19:58:00
12:55 PM,52.2,41.9,68,29.71,10.0,SSW,17.3,-,N/A,,Mostly Cloudy,200,2012-12-14 20:55:00
1:55 PM,52.3,37.8,58,29.76,10.0,SSW,23.0,-,N/A,,Overcast,200,2012-12-14 21:55:00
2:58 PM,51.8,36.0,55,29.76,10.0,SSW,20.7,-,N/A,,Mostly Cloudy,200,2012-12-14 22:58:00
3:58 PM,50.4,31.5,48,29.79,10.0,South,20.7,25.3,N/A,,Clear,190,2012-12-14 23:58:00
4:58 PM,48.9,30.9,50,29.82,10.0,South,18.4,-,N/A,,Partly Cloudy,170,2012-12-15 00:58:00
5:58 PM,48.6,32.2,53,29.84,10.0,South,12.7,-,N/A,,Clear,180,2012-12-15 01:58:00
6:58 PM,48.9,32.9,54,29.85,10.0,South,10.4,-,N/A,,Scattered Clouds,180,2012-12-15 02:58:00
7:58 PM,49.1,33.4,55,29.86,10.0,SSE,12.7,-,N/A,,Scattered Clouds,150,2012-12-15 03:58:00
8:58 PM,48.6,34.5,58,29.88,10.0,SSW,15.0,-,N/A,,Partly Cloudy,210,2012-12-15 04:58:00
9:06 PM,48.2,35.6,62,29.89,10.0,SW,15.0,-,N/A,,Partly Cloudy,220,2012-12-15 05:06:00
9:14 PM,46.4,37.4,71,29.89,10.0,SW,13.8,-,N/A,Rain,Light Rain,220,2012-12-15 05:14:00
9:27 PM,46.4,35.6,66,29.89,10.0,West,12.7,-,N/A,,Scattered Clouds,260,2012-12-15 05:27:00
9:33 PM,46.4,35.6,66,29.89,10.0,WSW,11.5,-,N/A,Rain,Light Rain,250,2012-12-15 05:33:00
9:43 PM,46.4,35.6,66,29.90,10.0,SW,10.4,-,N/A,,Scattered Clouds,220,2012-12-15 05:43:00
9:44 PM,46.4,35.6,66,29.90,10.0,SW,10.4,-,N/A,Rain,Light Rain,220,2012-12-15 05:44:00
9:54 PM,44.6,39.2,81,29.90,10.0,South,10.4,-,N/A,Rain,Light Rain,190,2012-12-15 05:54:00
9:58 PM,45.0,39.0,80,29.90,10.0,South,9.2,-,0.00,Rain,Light Rain,180,2012-12-15 05:58:00
10:33 PM,42.8,41.0,93,29.91,9.0,SSE,11.5,-,N/A,Rain,Light Rain,160,2012-12-15 06:33:00
10:38 PM,42.8,41.0,93,29.91,8.0,SSE,8.1,-,N/A,Rain,Light Rain,150,2012-12-15 06:38:00
10:48 PM,42.8,41.0,93,29.90,10.0,SE,9.2,-,N/A,Rain,Light Rain,140,2012-12-15 06:48:00
10:53 PM,42.8,41.0,93,29.90,10.0,SE,8.1,-,N/A,Rain,Light Rain,140,2012-12-15 06:53:00
10:58 PM,43.7,40.1,87,29.90,10.0,SE,6.9,-,0.03,Rain,Light Rain,140,2012-12-15 06:58:00
11:08 PM,44.6,41.0,87,29.90,10.0,South,3.5,-,N/A,,Mostly Cloudy,170,2012-12-15 07:08:00
11:13 PM,44.6,41.0,87,29.90,10.0,South,5.8,-,N/A,,Scattered Clouds,170,2012-12-15 07:13:00
11:58 PM,44.8,38.1,77,29.89,10.0,South,11.5,-,0.00,,Overcast,190,2012-12-15 07:58:00